Location: Nelson
(41.2830°S, 173.2830°E)
Time: 12:56:45
(UTC+12:00)

Meteor 1-26 Rocket - Visible Passes

Search period start: 23 April 2019 00:00
Search period end: 03 May 2019 00:00
Orbit: 820 x 914 km, 81.3° (Epoch: 22 April)

Date Brightness Start Highest point End Pass type
(mag) Time Alt. Az. Time Alt. Az. Time Alt. Az.
26 Apr 6.6 20:13:01 10° SSE 20:13:09 11° SSE 20:13:09 11° SSE visible
27 Apr 6.5 20:06:03 10° SSE 20:06:25 11° SSE 20:06:25 11° SSE visible
28 Apr 6.4 19:59:06 10° S 19:59:44 13° SSE 19:59:44 13° SSE visible
29 Apr 6.3 19:52:09 10° S 19:53:04 14° SSE 19:53:04 14° SSE visible
29 Apr 7.0 21:35:12 10° SSW 21:35:26 11° SSW 21:35:26 11° SSW visible
30 Apr 6.2 19:45:12 10° S 19:46:26 15° SSE 19:46:26 15° SSE visible
30 Apr 6.9 21:28:17 10° SSW 21:28:49 13° SSW 21:28:49 13° SSW visible
01 May 6.0 19:38:14 10° S 19:39:52 17° SSE 19:39:52 17° SSE visible
01 May 6.8 21:21:21 10° SSW 21:22:15 14° SSW 21:22:15 14° SSW visible
02 May 5.9 19:31:17 10° S 19:33:20 19° SSE 19:33:20 19° SSE visible
02 May 6.7 21:14:26 10° SSW 21:15:44 16° SSW 21:15:44 16° SSW visible
